This is the latest recevied weather packets stored in our database for station/object ED2YAA-10. If no packets are shown the sender has not sent any weather packets the latest 10 day(s).
| Time | Temp. | Humidity | Pressure | Rain* | Wind** | Luminosity | Snow |
|---|---|---|---|---|---|---|---|
| 1777638401 | 35° C | 29% | 932.2 hPa | - | - | - | - |
| 1777637501 | 33.89° C | 30% | 932.3 hPa | - | - | - | - |
| 1777636600 | 33.33° C | 31% | 932.5 hPa | - | - | - | - |
| 1777635700 | 32.22° C | 33% | 932.5 hPa | - | - | - | - |
| 1777634800 | 31.67° C | 33% | 932.5 hPa | - | - | - | - |
| 1777633900 | 31.11° C | 35% | 932.6 hPa | - | - | - | - |
| 1777633000 | 30.56° C | 35% | 932.6 hPa | - | - | - | - |
| 1777632100 | 30° C | 37% | 932.7 hPa | - | - | - | - |
| 1777631199 | 29.44° C | 38% | 932.6 hPa | - | - | - | - |
| 1777630299 | 28.33° C | 38% | 932.8 hPa | - | - | - | - |
| 1777629399 | 28.33° C | 39% | 932.8 hPa | - | - | - | - |
| 1777628499 | 27.22° C | 39% | 932.8 hPa | - | - | - | - |
| 1777627598 | 26.67° C | 40% | 932.7 hPa | - | - | - | - |
| 1777626698 | 26.11° C | 40% | 932.7 hPa | - | - | - | - |
| 1777625799 | 25.56° C | 40% | 932.7 hPa | - | - | - | - |
| 1777624898 | 25° C | 40% | 932.6 hPa | - | - | - | - |
| 1777623998 | 24.44° C | 41% | 932.6 hPa | - | - | - | - |
| 1777623098 | 23.89° C | 40% | 932.6 hPa | - | - | - | - |
| 1777622198 | 23.89° C | 41% | 932.5 hPa | - | - | - | - |
| 1777621298 | 23.33° C | 41% | 932.5 hPa | - | - | - | - |
| 1777620401 | 23.33° C | 41% | 932.4 hPa | - | - | - | - |
| 1777619500 | 22.78° C | 41% | 932.4 hPa | - | - | - | - |
| 1777618602 | 22.78° C | 41% | 932.4 hPa | - | - | - | - |
| 1777617702 | 22.78° C | 41% | 932.3 hPa | - | - | - | - |
| 1777616802 | 22.78° C | 40% | 932.3 hPa | - | - | - | - |
* Rain since midnight (hover to see other rain measurements)
** Current wind speed in m/s (hover to see current wind gust speed)